Time,TemperatureF,DewpointF,PressureIn,WindDirection,WindDirectionDegrees,WindSpeedMPH,WindSpeedGustMPH,Humidity,HourlyPrecipIn,Conditions,Clouds,dailyrainin,SolarRadiationWatts/m^2,SoftwareType,DateUTC
2013-02-26 00:21:00,38.0,30.0,-100.00,South,179,3.0,5.0,73,0.00,,,-99.99,0.000000,,2013-02-26 08:21:00,
2013-02-26 00:31:00,38.0,30.0,-100.00,South,179,3.0,5.0,73,0.00,,,-99.99,0.000000,,2013-02-26 08:31:00,
2013-02-26 00:41:00,38.0,30.0,-100.00,South,179,3.0,5.0,73,0.00,,,-99.99,0.000000,,2013-02-26 08:41:00,
2013-02-26 00:52:00,38.0,30.0,-100.00,South,179,3.0,5.0,73,0.00,,,-99.99,0.000000,,2013-02-26 08:52:00,
2013-02-26 01:21:00,40.0,30.0,-100.00,WNW,286,2.0,4.0,66,0.00,,,0.00,0.000000,,2013-02-26 09:21:00,
2013-02-26 01:31:00,40.0,30.0,-100.00,WNW,286,2.0,4.0,66,0.00,,,0.00,0.000000,,2013-02-26 09:31:00,
2013-02-26 01:43:00,40.0,30.0,-100.00,WNW,286,2.0,4.0,66,0.00,,,0.00,0.000000,,2013-02-26 09:43:00,
2013-02-26 01:51:00,40.0,30.0,-100.00,WNW,286,2.0,4.0,66,0.00,,,0.00,0.000000,,2013-02-26 09:51:00,
2013-02-26 02:21:00,36.0,29.0,-100.00,SE,138,2.0,5.0,74,0.00,,,0.00,0.000000,,2013-02-26 10:21:00,
2013-02-26 02:31:00,36.0,29.0,-100.00,SE,138,2.0,5.0,74,0.00,,,0.00,0.000000,,2013-02-26 10:31:00,
2013-02-26 02:41:00,36.0,29.0,-100.00,SE,138,2.0,5.0,74,0.00,,,0.00,0.000000,,2013-02-26 10:41:00,
2013-02-26 02:51:00,36.0,29.0,-100.00,SE,138,2.0,5.0,74,0.00,,,0.00,0.000000,,2013-02-26 10:51:00,
2013-02-26 03:21:00,37.0,29.0,-100.00,West,277,1.0,5.0,72,0.00,,,0.00,0.000000,,2013-02-26 11:21:00,
2013-02-26 03:31:00,37.0,29.0,-100.00,West,277,1.0,5.0,72,0.00,,,0.00,0.000000,,2013-02-26 11:31:00,
2013-02-26 03:41:00,37.0,29.0,-100.00,West,277,1.0,5.0,72,0.00,,,0.00,0.000000,,2013-02-26 11:41:00,
2013-02-26 03:52:00,37.0,29.0,-100.00,West,277,1.0,5.0,72,0.00,,,0.00,0.000000,,2013-02-26 11:52:00,
2013-02-26 04:22:00,35.0,28.0,-100.00,South,174,0.0,4.0,74,0.00,,,0.00,0.000000,,2013-02-26 12:22:00,
2013-02-26 04:32:00,35.0,28.0,-100.00,South,174,0.0,4.0,74,0.00,,,0.00,0.000000,,2013-02-26 12:32:00,
2013-02-26 04:42:00,35.0,28.0,-100.00,South,174,0.0,4.0,74,0.00,,,0.00,0.000000,,2013-02-26 12:42:00,
2013-02-26 04:52:00,35.0,28.0,-100.00,South,174,0.0,4.0,74,0.00,,,0.00,0.000000,,2013-02-26 12:52:00,
2013-02-26 05:21:00,34.0,27.0,-100.00,SE,135,2.0,4.0,76,0.00,,,0.00,0.000000,,2013-02-26 13:21:00,
2013-02-26 05:31:00,34.0,27.0,-100.00,SE,135,2.0,4.0,76,0.00,,,0.00,0.000000,,2013-02-26 13:31:00,
2013-02-26 05:42:00,34.0,27.0,-100.00,SE,135,2.0,4.0,76,0.00,,,0.00,0.000000,,2013-02-26 13:42:00,
2013-02-26 05:51:00,34.0,27.0,-100.00,SE,135,2.0,4.0,76,0.00,,,0.00,0.000000,,2013-02-26 13:51:00,
2013-02-26 06:21:00,33.0,27.0,-100.00,SE,133,0.0,5.0,79,0.00,,,0.00,0.000000,,2013-02-26 14:21:00,
2013-02-26 06:31:00,33.0,27.0,-100.00,SE,133,0.0,5.0,79,0.00,,,0.00,0.000000,,2013-02-26 14:31:00,
2013-02-26 06:41:00,33.0,27.0,-100.00,SE,133,0.0,5.0,79,0.00,,,0.00,0.000000,,2013-02-26 14:41:00,
2013-02-26 06:52:00,33.0,27.0,-100.00,SE,133,0.0,5.0,79,0.00,,,0.00,0.000000,,2013-02-26 14:52:00,
2013-02-26 07:21:00,33.0,24.0,-100.00,ESE,112,1.0,4.0,68,0.00,,,0.00,2.000000,,2013-02-26 15:21:00,
2013-02-26 07:32:00,33.0,24.0,-100.00,ESE,112,1.0,4.0,68,0.00,,,0.00,2.000000,,2013-02-26 15:32:00,
2013-02-26 07:41:00,33.0,24.0,-100.00,ESE,112,1.0,4.0,68,0.00,,,0.00,2.000000,,2013-02-26 15:41:00,
2013-02-26 07:51:00,33.0,24.0,-100.00,ESE,112,1.0,4.0,68,0.00,,,0.00,2.000000,,2013-02-26 15:51:00,
2013-02-26 08:22:00,40.0,26.0,-100.00,NNW,330,2.0,6.0,56,0.00,,,0.00,75.000000,,2013-02-26 16:22:00,
2013-02-26 08:31:00,40.0,26.0,-100.00,NNW,330,2.0,6.0,56,0.00,,,0.00,75.000000,,2013-02-26 16:31:00,
2013-02-26 08:41:00,40.0,26.0,-100.00,NNW,330,2.0,6.0,56,0.00,,,0.00,75.000000,,2013-02-26 16:41:00,
2013-02-26 08:51:00,40.0,26.0,-100.00,NNW,330,2.0,6.0,56,0.00,,,0.00,75.000000,,2013-02-26 16:51:00,
2013-02-26 09:21:00,49.0,23.0,-100.00,NW,311,6.0,9.0,36,0.00,,,0.00,313.000000,,2013-02-26 17:21:00,
2013-02-26 09:41:00,49.0,23.0,-100.00,NW,311,6.0,9.0,36,0.00,,,0.00,313.000000,,2013-02-26 17:41:00,
2013-02-26 09:52:00,49.0,23.0,-100.00,NW,311,6.0,9.0,36,0.00,,,0.00,313.000000,,2013-02-26 17:52:00,
2013-02-26 11:22:00,56.0,28.0,-100.00,WNW,291,6.0,12.0,34,-99.99,,,0.00,629.000000,,2013-02-26 19:22:00,
2013-02-26 11:31:00,56.0,28.0,-100.00,WNW,291,6.0,12.0,34,-99.99,,,0.00,629.000000,,2013-02-26 19:31:00,
2013-02-26 11:41:00,56.0,28.0,-100.00,WNW,291,6.0,12.0,34,-99.99,,,0.00,629.000000,,2013-02-26 19:41:00,
2013-02-26 11:51:00,56.0,28.0,-100.00,WNW,291,6.0,12.0,34,-99.99,,,0.00,629.000000,,2013-02-26 19:51:00,
2013-02-26 12:21:00,60.0,26.0,-100.00,WNW,284,7.0,13.0,27,0.00,,,0.00,715.000000,,2013-02-26 20:21:00,
2013-02-26 12:31:00,60.0,26.0,-100.00,WNW,284,7.0,13.0,27,0.00,,,0.00,715.000000,,2013-02-26 20:31:00,
2013-02-26 12:41:00,60.0,26.0,-100.00,WNW,284,7.0,13.0,27,0.00,,,0.00,715.000000,,2013-02-26 20:41:00,
2013-02-26 12:51:00,60.0,26.0,-100.00,WNW,284,7.0,13.0,27,0.00,,,0.00,715.000000,,2013-02-26 20:51:00,
2013-02-26 13:21:00,62.0,22.0,-100.00,WNW,295,9.0,17.0,21,0.00,,,0.00,739.000000,,2013-02-26 21:21:00,
2013-02-26 13:31:00,62.0,22.0,-100.00,WNW,295,9.0,17.0,21,0.00,,,0.00,739.000000,,2013-02-26 21:31:00,
2013-02-26 13:41:00,62.0,22.0,-100.00,WNW,295,9.0,17.0,21,0.00,,,0.00,739.000000,,2013-02-26 21:41:00,
2013-02-26 13:51:00,62.0,22.0,-100.00,WNW,295,9.0,17.0,21,0.00,,,0.00,739.000000,,2013-02-26 21:51:00,
2013-02-26 14:21:00,64.0,24.0,-100.00,NW,318,9.0,19.0,22,0.00,,,0.00,698.000000,,2013-02-26 22:21:00,
2013-02-26 14:31:00,64.0,24.0,-100.00,NW,318,9.0,19.0,22,0.00,,,0.00,698.000000,,2013-02-26 22:31:00,
2013-02-26 14:41:00,64.0,24.0,-100.00,NW,318,9.0,19.0,22,0.00,,,0.00,698.000000,,2013-02-26 22:41:00,
2013-02-26 14:51:00,64.0,24.0,-100.00,NW,318,9.0,19.0,22,0.00,,,0.00,698.000000,,2013-02-26 22:51:00,
2013-02-26 15:21:00,65.0,23.0,-100.00,WNW,282,8.0,14.0,20,0.00,,,0.00,599.000000,,2013-02-26 23:21:00,
2013-02-26 15:31:00,65.0,23.0,-100.00,WNW,282,8.0,14.0,20,0.00,,,0.00,599.000000,,2013-02-26 23:31:00,
2013-02-26 15:41:00,65.0,23.0,-100.00,WNW,282,8.0,14.0,20,0.00,,,0.00,599.000000,,2013-02-26 23:41:00,
2013-02-26 15:51:00,65.0,23.0,-100.00,WNW,282,8.0,14.0,20,0.00,,,0.00,599.000000,,2013-02-26 23:51:00,
2013-02-26 16:21:00,64.0,25.0,-100.00,WNW,290,8.0,16.0,23,0.00,,,0.00,453.000000,,2013-02-27 00:21:00,
2013-02-26 16:31:00,64.0,25.0,-100.00,WNW,290,8.0,16.0,23,0.00,,,0.00,453.000000,,2013-02-27 00:31:00,
2013-02-26 16:41:00,64.0,25.0,-100.00,WNW,290,8.0,16.0,23,0.00,,,0.00,453.000000,,2013-02-27 00:41:00,
2013-02-26 16:51:00,64.0,25.0,-100.00,WNW,290,8.0,16.0,23,0.00,,,0.00,453.000000,,2013-02-27 00:51:00,
2013-02-26 17:21:00,62.0,27.0,-100.00,WNW,295,8.0,16.0,26,0.00,,,0.00,240.000000,,2013-02-27 01:21:00,
2013-02-26 17:31:00,62.0,27.0,-100.00,WNW,295,8.0,16.0,26,0.00,,,0.00,240.000000,,2013-02-27 01:31:00,
2013-02-26 17:41:00,62.0,27.0,-100.00,WNW,295,8.0,16.0,26,0.00,,,0.00,240.000000,,2013-02-27 01:41:00,
2013-02-26 17:51:00,62.0,27.0,-100.00,WNW,295,8.0,16.0,26,0.00,,,0.00,240.000000,,2013-02-27 01:51:00,
2013-02-26 18:22:00,57.0,24.0,-100.00,West,270,5.0,19.0,28,0.00,,,0.00,69.000000,,2013-02-27 02:22:00,
2013-02-26 18:32:00,57.0,24.0,-100.00,West,270,5.0,19.0,28,0.00,,,0.00,69.000000,,2013-02-27 02:32:00,
2013-02-26 18:41:00,57.0,24.0,-100.00,West,270,5.0,19.0,28,0.00,,,0.00,69.000000,,2013-02-27 02:41:00,
2013-02-26 18:52:00,57.0,24.0,-100.00,West,270,5.0,19.0,28,0.00,,,0.00,69.000000,,2013-02-27 02:52:00,
2013-02-26 19:21:00,55.0,21.0,-100.00,West,279,2.0,8.0,26,0.00,,,0.00,0.000000,,2013-02-27 03:21:00,
2013-02-26 19:32:00,55.0,21.0,-100.00,West,279,2.0,8.0,26,0.00,,,0.00,0.000000,,2013-02-27 03:32:00,
2013-02-26 19:41:00,55.0,21.0,-100.00,West,279,2.0,8.0,26,0.00,,,0.00,0.000000,,2013-02-27 03:41:00,
2013-02-26 19:51:00,55.0,21.0,-100.00,West,279,2.0,8.0,26,0.00,,,0.00,0.000000,,2013-02-27 03:51:00,
2013-02-26 20:11:00,52.0,14.0,-100.00,SW,231,1.0,4.0,22,0.00,,,0.00,0.000000,,2013-02-27 04:11:00,
2013-02-26 20:21:00,52.0,14.0,-100.00,SW,231,1.0,4.0,22,0.00,,,0.00,0.000000,,2013-02-27 04:21:00,
2013-02-26 20:31:00,52.0,14.0,-100.00,SW,231,1.0,4.0,22,0.00,,,0.00,0.000000,,2013-02-27 04:31:00,
2013-02-26 21:22:00,48.0,15.0,-100.00,South,191,1.0,4.0,26,0.00,,,0.00,0.000000,,2013-02-27 05:22:00,
2013-02-26 21:32:00,48.0,15.0,-100.00,South,191,1.0,4.0,26,0.00,,,0.00,0.000000,,2013-02-27 05:32:00,
2013-02-26 21:41:00,48.0,15.0,-100.00,South,191,1.0,4.0,26,0.00,,,0.00,0.000000,,2013-02-27 05:41:00,
2013-02-26 21:52:00,48.0,15.0,-100.00,South,191,1.0,4.0,26,0.00,,,0.00,0.000000,,2013-02-27 05:52:00,
2013-02-26 22:21:00,47.0,12.0,-100.00,ESE,105,2.0,4.0,24,0.00,,,0.00,0.000000,,2013-02-27 06:21:00,
2013-02-26 22:32:00,47.0,12.0,-100.00,ESE,105,2.0,4.0,24,0.00,,,0.00,0.000000,,2013-02-27 06:32:00,
2013-02-26 23:21:00,43.0,19.0,-100.00,SE,142,2.0,5.0,38,0.00,,,0.00,0.000000,,2013-02-27 07:21:00,
2013-02-26 23:31:00,43.0,19.0,-100.00,SE,142,2.0,5.0,38,0.00,,,0.00,0.000000,,2013-02-27 07:31:00,
2013-02-26 23:41:00,43.0,19.0,-100.00,SE,142,2.0,5.0,38,0.00,,,0.00,0.000000,,2013-02-27 07:41:00,
2013-02-26 23:51:00,43.0,19.0,-100.00,SE,142,2.0,5.0,38,0.00,,,0.00,0.000000,,2013-02-27 07:51:00,